Regional Weather Roundup
Issued by NWS San Diego, CA

Home | Current Version | Previous Version | Text Only | Print | Product List | Glossary On
Versions: 1 2 3 4 5 6 7 8 9 10 11 12 13 14 15 16 17 18 19 20 21 22 23 24 25 26 27 28 29 30 31 32 33 34 35 36 37 38 39 40 41 42 43 44 45 46 47 48 49 50
000
ASUS46 KSGX 250611
RWRSGX

SAN DIEGO HOURLY WEATHER ROUNDUP
NATIONAL WEATHER SERVICE SAN DIEGO CA
1100 PM PDT FRI APR 24 2015

NOTE: "FAIR" INDICATES FEW OR NO CLOUDS BELOW 12,000 FEET WITH NO
SIGNIFICANT WEATHER AND/OR OBSTRUCTIONS TO VISIBILITY.

CAZ042-043-060-061-PZZ750-775-250700-

GREATER SAN DIEGO AREA

CITY           SKY/WX    TMP DP  RH WIND       PRES   REMARKS
LINDBERGH FLD  CLOUDY    62  50  64 SW5       30.04S
POINT LOMA       N/A     60  51  73 SW8         N/A
CHULA VISTA      N/A     61  54  79 SW3       29.96S
IMPERIAL BEACH CLOUDY    62  51  67 SW6       30.04S
BROWN FIELD    CLOUDY    58  51  78 W5        30.03S
MIRAMAR MCAS   CLOUDY    61  50  67 W3        30.02S
MONTGOMERY FLD CLOUDY    60  51  72 W3        30.03S

$$

NORTH SAN DIEGO COUNTY

CITY           SKY/WX    TMP DP  RH WIND       PRES   REMARKS
CAMP PENDLETON CLOUDY    60  51  72 CALM      30.02S
OCEANSIDE AP   CLOUDY    61  51  70 SW5       30.01S
VISTA            N/A     58  52  79 CALM      30.01S
CARLSBAD       CLOUDY    60  51  72 S3        30.01S
FALLBROOK        N/A     57  57 100 CALM      30.03S
SAN MARCOS       N/A     57  52  84 CALM      30.01S
POWAY            N/A     57  53  85 CALM      30.05S

$$

EAST SAN DIEGO COUNTY

CITY           SKY/WX    TMP DP  RH WIND       PRES   REMARKS
RAMONA         CLOUDY    53  50  89 W3        30.02F
SANTEE LAKES     N/A     59  53  79 CALM      30.03S
LA MESA          N/A     59  52  79 CALM      29.97S
DESCANSO N       N/A     46  45  95 CALM      29.93S
MT. LAGUNA OBS   N/A     38  38 100 W17       29.59R WCI  29
CAMPO            N/A     49  47  93 SW12      29.98F

$$

ORANGE COUNTY AND THE LOS ANGELES BASIN

CITY           SKY/WX    TMP DP  RH WIND       PRES   REMARKS
JOHN WAYNE AP  MOCLDY    60  50  69 SW3       30.01F
LAKE FOREST FR   N/A     56  50  81 CALM      29.93S
SANTA ANA        N/A     61  53  74 CALM      29.96F
HUNTINGTON BCH   N/A     60  54  82 SW2       30.03F
LOS ALAMITOS   MOCLDY    58  53  81 S5        30.01S
FULLERTON      CLOUDY    62  51  67 SW5       30.00F
LONG BEACH     MOCLDY    60  52  74 NW6       30.01F
L.A. AP        MOCLDY    58  53  84 SW9       30.01F
L.A. DOWNTOWN  MOCLDY    59  52  77 W3        30.01S

$$

THE INLAND EMPIRE

CITY           SKY/WX    TMP DP  RH WIND       PRES   REMARKS
CORONA         MOCLDY    56  52  86 CALM      30.01F
CHINO          CLOUDY    58  51  78 W7        30.02S
ONTARIO        MOCLDY    57  50  77 W8        30.00F
RIVERSIDE AP   CLOUDY    57  51  80 W6        30.01S
RIV CYN CREST    N/A     57  57 100 NW2         N/A
MORENO VALLEY    N/A     54  53  96 S3        29.98F
MARCH ARB      CLOUDY    55  53  92 NW5       30.00F
HORSETHIEF CYN   N/A     52  45  76 SW2       29.99S
MENIFEE          N/A     56  51  85 S1        30.06S
HEMET EAST       N/A     52  46  81 CALM      30.03S
FRENCH VALLEY  CLOUDY    54  50  87 SW3       30.02F
TEMECULA         N/A     56  54  92 SE2       29.97F

$$

SAN BERNARDINO AND RIVERSIDE COUNTY MOUNTAINS

CITY           SKY/WX    TMP DP  RH WIND       PRES   REMARKS
BIG BEAR AP    PTCLDY    37  30  75 SW8       30.01F WCI  31

$$

SOUTHERN DESERT INCLUDING THE COACHELLA VALLEY

CITY           SKY/WX    TMP DP  RH WIND       PRES   REMARKS
PALM SPRINGS   PTCLDY    70  43  37 NW9       29.86S
THOUSAND PALMS   N/A     65  47  53 NW21      29.85S
THERMAL        PTCLDY    67  48  50 N20G29    29.84S
BLYTHE         CLEAR     66  49  54 SW17      29.83F
IMPERIAL AP    CLEAR     65  48  54 NW16      29.86S
EL CENTRO NAS  CLEAR     66  46  48 W21G29    29.89S
YUMA AZ        PTCLDY    66  49  54 W7        29.89R

$$

UPPER DESERT

CITY           SKY/WX    TMP DP  RH WIND       PRES   REMARKS
VICTORVILLE AP CLEAR     55  39  54 W23G29    29.92F
HESPERIA         N/A     49  45  85 W13       30.07F
APPLE VALLEY     N/A     52  43  72 SW5       30.02F
PALMDALE       CLEAR     54  44  69 SW22G29   29.95F
LANCASTER      CLEAR     53  45  74 SW16      29.96F
EDWARDS AFB    CLEAR     53  45  74 SW18      29.91F
DAGGETT        CLEAR     61  39  44 SW31G39   29.85R
29 PALMS N     PTCLDY    62  34  35 N6        29.93F
NEEDLES        PTCLDY    72  37  28 W8        29.80R

$$

REGIONAL REPORTS

CITY           SKY/WX    TMP DP  RH WIND       PRES   REMARKS
SANTA BARBARA  CLEAR     57  45  64 N5        29.99F
SANDBERG       CLOUDY    47  41  80 NW8       30.01F HAZE
MT. WILSON       N/A     37  39 100 MISG        N/A
LAS VEGAS NV   MOCLDY    65  38  36 S16       29.74S
PHOENIX AZ     PTCLDY    70  41  34 SW5       29.86F
TIJUANA        CLOUDY    59  48  67 SW8       30.04F
ENSENADA NW      N/A     60  32  34 CALM      30.02S

$$

OFFSHORE ISLANDS

CITY           SKY/WX    TMP DP  RH WIND       PRES   REMARKS
CATALINA ARPT  CLEAR     51  49  92 SW3       30.02F
SAN NICOLAS IS PTCLDY   N/A N/A N/A NW23      30.02F

$$

MARINE AND OFFSHORE BUOY REPORTS

STATION/POSITION SKY/WX   TEMP    WIND        PRES    SWELL
                          AIR SEA DIR/SP/G            HT/PER/DIR
                          (F)     (DEG/KT/KT) (MB)    (FT/S/D)
TANNER BANKS               59 60  320/ 19/ 23 1017.6F   5/290/11
S CLEMENTE BASIN           61 63  310/ 10/ 12 1016.7S   5/280/ 7
SAN NICOLAS IS.               59                N/A     3/280/11
SO. S. ROSA ISLA           58 60  320/ 21/ 25 1016.4F   3/10
W. S. BARBARA CH           56 56  330/ 19/ 23 1016.4F   3/310/ 8
S. MONICA BASIN            59 62  250/  2/  4 1016.2F   5/280/ 6
S PEDRO CHANNEL               60                N/A     2/250/12
DANA POINT                    64                N/A     2/210/15
OCEANSIDE OFFSHR              62                N/A     2/220/14
TORREY PINES OTR              63                N/A     2/260/12
LA JOLLA 1                 61 63  240/  3/  4 1016.6R
MISSION BAY BUOY              63                N/A     2/270/11
SAN DIEGO BAY                 67              1017.1R
POINT LOMA SOUTH              65                N/A     3/260/12

$$




USA.gov is the U.S. government's official web portal to all federal, state and local government web resources and services.